Regional Weather Roundup
Issued by NWS

Home | Current Version | Previous Version | Text Only | Print | Product List | Glossary Off
Versions: 1 2 3 4 5 6 7 8 9 10 11 12 13 14 15 16 17 18 19 20 21 22 23 24 25 26 27 28 29 30 31 32 33 34 35 36 37 38 39 40 41 42 43 44 45 46 47 48 49 50

000
ASUS43 KBIS 271210
RWRND

NORTH DAKOTA REGIONAL WEATHER ROUNDUP
NATIONAL WEATHER SERVICE BISMARCK ND
700 AM CDT WED AUG 27 2014

NOTE: "FAIR" INDICATES FEW OR NO CLOUDS BELOW 12,000 FEET WITH NO
SIGNIFICANT WEATHER AND/OR OBSTRUCTIONS TO VISIBILITY.


NDZ001>003-009>011-017-271300-
NORTHWEST NORTH DAKOTA

CITY           SKY/WX    TMP DP  RH WIND       PRES   REMARKS
WILLISTON      CLEAR     51  50  96 SW3       30.11S
6HR MIN TEMP:  50; 6HR MAX TEMP:  57;

MINOT          CLEAR     52  49  89 SW6       30.12F
MINOT AFB      CLEAR     48  48 100 S3        30.12S
$$

NDZ018>021-031>035-040>046-271300-
SOUTHWEST NORTH DAKOTA

CITY           SKY/WX    TMP DP  RH WIND       PRES   REMARKS
BISMARCK       FOG       49  49 100 CALM      30.17R VSB 1/4
6HR MIN TEMP:  48; 6HR MAX TEMP:  56;

DICKINSON      PTCLDY    47  46  97 S7        30.13R FOG
GARRISON         N/A     45  45 100 CALM      30.15S
6HR MIN TEMP:  45; 6HR MAX TEMP:  52;

HETTINGER ARPT FOG       46  45  96 CALM      30.16S VSB 1/2
$$

NDZ004>008-012>016-024-026-027-054-271300-
NORTHEAST NORTH DAKOTA

CITY           SKY/WX    TMP DP  RH WIND       PRES   REMARKS
GRAND FORKS    PTCLDY    48  47  96 S5        30.17R
GRND FRKS AFB  CLEAR     47  46  99 S2        30.17S
DEVILS LAKE    CLEAR     48  43  81 CALM      30.15S
$$

NDZ022-023-025-028>030-036>039-047>053-271300-
SOUTHEAST NORTH DAKOTA

CITY           SKY/WX    TMP DP  RH WIND       PRES   REMARKS
FARGO          FOG       50  49  96 E3        30.18R VSB<1/4
6HR MIN TEMP:  49; 6HR MAX TEMP:  58;

JAMESTOWN      FOG       50  49  96 CALM      30.17S VSB<1/4
$$




USA.gov is the U.S. government's official web portal to all federal, state and local government web resources and services.